Location: Izdebno
(52.6670°N, 16.2170°E)
Time: 06:53:16
(UTC+02:00)

Vanguard 2 Rocket - Pass Details

Date: 27 February 2024
Orbit: 555 x 3307 km, 32.9° (Epoch: 24 April)

Event Time Altitude Azimuth Distance (km) Brightness Sun altitude
Rises 14:46:03 0° 230° (SW) 4,316 11.9 20.3°
Reaches altitude 10° 14:49:03 10° 218° (SW) 3,689 12.3 20.0°
Maximum altitude 14:57:11 28° 164° (SSE) 3,322 10.3 19.1°
Drops below altitude 10° 15:09:16 10° 114° (ESE) 5,584 10.7 17.8°
Sets 15:15:12 0° 106° (ESE) 6,947 11.1 17.1°
